{"data":{"norad_id":59835,"epoch":"2026-05-25T03:42:22.512672Z","epoch_age_seconds":72382,"freshness":"FRESH","line1":"1 59835U 24097A   26145.15442723  .00000061  00000+0  11740-4 0  9991","line2":"2 59835  43.0040 202.3164 0001856 273.3244  86.7396 15.27574929113618","mean_motion":15.27574929,"eccentricity":0.0001856,"inclination_deg":43.004,"raan_deg":202.3164,"arg_perigee_deg":273.3244,"mean_anomaly_deg":86.7396,"bstar":1.174e-5,"rev_number":11361,"period_min":94.267061645393,"perigee_km":481.79084152228,"apogee_km":484.3377194376,"semimajor_km":6861.2012804799,"source":"CELESTRAK","updated_at":"2026-05-25T13:38:19.084900Z"}}